This is the latest recevied weather packets stored in our database for station/object KGRR-WX. If no packets are shown the sender has not sent any weather packets the latest 10 day(s).
| Time | Temp. | Humidity | Pressure | Rain* | Wind** | Luminosity | Snow |
|---|---|---|---|---|---|---|---|
| 1777308304 | 20° C | 53% | 985.6 hPa | 0 mm | - | - | - |
| 1777307421 | 19.44° C | 54% | 985.5 hPa | 0 mm | - | - | - |
| 1777306506 | 18.33° C | 54% | 985.5 hPa | 0 mm | - | - | - |
| 1777305625 | 17.78° C | 54% | 985.5 hPa | 0 mm | - | - | - |
| 1777304706 | 17.22° C | 61% | 986.3 hPa | 0 mm | - | - | - |
| 1777303813 | 17.22° C | 60% | 985.9 hPa | 0 mm | - | - | - |
| 1777302906 | 16.11° C | 60% | 985.8 hPa | 0 mm | - | - | - |
| 1777302017 | 15.56° C | 60% | 985.8 hPa | 0 mm | - | - | - |
| 1777301105 | 15° C | 70% | 986 hPa | 0 mm | - | - | - |
| 1777300222 | 14.44° C | 69% | 987 hPa | 0 mm | - | - | - |
| 1777299305 | 13.89° C | 69% | 987 hPa | 0 mm | - | - | - |
| 1777298426 | 13.33° C | 69% | 987 hPa | 0 mm | - | - | - |
| 1777297505 | 12.78° C | 75% | 987.3 hPa | 0 mm | - | - | - |
| 1777296620 | 12.22° C | 75% | 987.3 hPa | 0 mm | - | - | - |
| 1777295705 | 11.67° C | 75% | 987.3 hPa | 0 mm | - | - | - |
| 1777294823 | 11.11° C | 75% | 987.3 hPa | 0 mm | - | - | - |
| 1777293905 | 10.56° C | 80% | 988 hPa | 0 mm | - | - | - |
| 1777293021 | 10° C | 80% | 988 hPa | 0 mm | - | - | - |
| 1777292104 | 10° C | 80% | 988 hPa | 0 mm | - | - | - |
| 1777291225 | 8.89° C | 80% | 988 hPa | 0 mm | - | - | - |
| 1777290310 | 8.33° C | 81% | 987.8 hPa | 0 mm | - | - | - |
| 1777289414 | 8.33° C | 82% | 987.7 hPa | 0 mm | - | - | - |
| 1777288507 | 7.78° C | 82% | 987.7 hPa | 0 mm | - | - | - |
| 1777287625 | 7.22° C | 82% | 987.7 hPa | 0 mm | - | - | - |
| 1777286710 | 7.22° C | 81% | 989.3 hPa | 0 mm | - | - | - |
* Rain latest hour (hover to see other rain measurements)
** Current wind speed in m/s (hover to see current wind gust speed)